Wind_Speed
24 28 30 30 28 27 25 22 22 22 22 21 20 19 18 18 19 20 21 22 23 24 23 22 22 23 23 23 24 23 23 23 22 22 23 23 25 25 25 24 24 24 24 23 23 23 22 21 21 20 20 20 20 21 21 21 20 21 22 23 24 24 25
26 30 31 30 28 27 25 22 21 22 22 21 21 20 18 18 20 21 22 22 23 23 23 22 22 23 23 23 24 24 24 24 23 23 23 25 27 27 25 24 24 24 24 24 23 23 23 22 22 21 21 21 21 22 22 22 22 21 22 23 24 25 25
29 32 32 30 27 26 25 23 22 22 22 22 21 20 19 19 20 21 21 21 22 23 23 22 22 23 22 23 24 25 25 26 26 26 26 29 32 31 26 23 24 23 23 24 24 23 23 23 23 22 22 21 22 23 23 23 23 22 23 23 24 25 27
31 33 32 29 27 26 25 24 23 22 22 22 21 21 20 20 20 20 20 20 21 22 22 22 22 22 22 23 24 25 26 26 26 27 27 28 31 30 26 23 23 22 22 24 24 24 24 24 24 23 23 23 23 23 24 24 24 24 24 25 25 27 29
33 34 32 29 27 26 25 24 24 23 23 22 22 21 21 20 20 19 19 19 20 20 20 22 23 22 21 22 23 25 25 25 26 26 26 27 26 25 24 23 23 22 22 23 23 24 25 25 25 24 24 24 24 24 25 25 26 26 26 27 28 30 31
35 35 32 29 28 27 25 25 25 24 24 23 22 21 20 20 20 19 19 19 20 20 20 22 24 22 20 21 22 24 25 25 26 26 26 26 23 21 22 23 23 22 22 23 23 25 25 25 25 25 25 25 25 25 26 27 28 28 29 29 31 32 34
36 35 32 30 29 27 25 25 25 25 24 22 21 20 19 19 19 19 19 18 19 20 19 21 23 22 21 22 23 24 26 26 26 25 23 22 20 19 21 23 23 23 23 23 24 25 25 25 25 25 25 26 26 26 27 29 30 31 31 32 33 35 36
36 36 33 30 29 27 26 26 26 25 24 22 21 19 19 19 19 19 19 18 21 21 19 19 22 22 23 24 25 26 26 26 25 23 21 20 20 20 21 23 23 23 23 23 24 25 25 25 25 25 26 27 27 28 29 30 32 33 33 34 36 37 38
36 36 34 31 29 27 27 27 26 25 23 21 20 19 19 19 18 18 19 19 22 22 20 19 22 23 24 25 26 26 26 25 23 20 20 20 20 21 21 23 24 23 23 23 24 25 25 25 25 26 27 28 28 29 30 31 33 34 35 36 37 39 40
37 37 35 32 29 28 27 27 26 24 23 20 19 19 18 18 18 18 19 20 21 22 21 21 22 23 24 25 26 26 26 25 21 19 20 21 21 22 23 23 23 23 22 23 24 25 24 25 25 26 27 28 29 30 31 32 34 35 36 37 38 40 41
39 38 36 32 29 28 27 26 26 24 22 20 19 19 18 18 18 18 19 20 20 21 21 22 23 23 24 25 25 24 24 23 22 21 22 23 22 23 23 24 23 22 22 23 24 24 24 25 26 27 27 29 30 31 32 34 35 36 37 38 39 40 41
39 39 36 32 30 28 27 26 26 24 21 20 19 19 18 18 18 18 19 20 20 21 22 23 23 23 24 24 24 23 23 23 24 24 24 24 24 24 23 23 23 23 24 24 24 24 24 25 26 27 28 29 30 32 33 35 36 36 37 38 39 40 41
39 39 36 33 31 29 28 27 26 23 22 21 20 19 19 18 18 18 19 20 21 21 22 23 23 24 24 24 23 23 23 25 25 25 25 26 26 25 24 23 23 24 25 24 24 24 25 26 26 27 28 29 31 32 34 36 37 37 37 38 39 39 40
39 39 37 34 32 30 28 28 26 23 23 22 20 20 19 18 18 19 20 21 21 22 22 23 23 24 24 23 23 22 24 25 25 26 26 26 26 26 24 24 24 24 25 25 25 25 25 25 26 27 29 30 32 33 35 36 37 38 38 38 38 38 40
40 40 38 35 33 30 29 28 26 24 24 23 21 20 20 19 18 19 21 22 22 22 23 23 23 24 24 23 22 22 23 25 25 26 26 27 26 25 24 24 24 24 24 24 25 25 25 26 27 28 30 31 33 34 36 38 39 39 39 39 38 39 40
40 41 39 37 34 31 29 28 27 26 26 23 21 21 20 19 19 20 22 23 23 23 23 24 23 23 23 22 22 22 23 24 25 26 26 25 24 23 23 23 23 23 23 23 24 25 25 27 28 29 31 33 34 36 37 39 40 42 42 41 39 39 41
41 41 40 37 34 31 29 28 28 27 26 24 22 21 20 19 20 21 23 24 24 24 24 24 23 23 23 22 23 23 24 25 25 24 23 22 21 21 21 22 22 22 23 23 24 25 26 28 29 31 32 34 35 37 38 39 41 42 42 40 39 40 42
42 42 41 37 34 31 30 29 29 28 27 24 22 21 20 20 21 22 24 25 25 24 24 24 23 23 23 22 23 24 24 24 23 21 20 19 19 19 20 21 22 22 22 23 25 26 28 29 31 32 34 35 36 37 38 39 39 39 38 37 39 41 43
42 42 41 37 33 32 31 31 30 29 27 25 22 21 21 21 22 23 25 25 25 25 24 24 24 24 23 23 23 24 24 23 20 19 18 18 18 19 20 21 22 22 23 24 26 28 29 30 32 33 34 35 36 37 38 38 37 38 38 39 42 43 44
43 42 40 37 33 32 32 32 31 29 27 25 23 22 22 22 23 24 25 25 25 25 25 25 25 24 24 23 24 24 23 21 19 18 18 18 18 19 20 21 22 23 24 25 27 29 30 31 32 33 34 35 36 37 37 37 37 39 41 42 44 44 44
43 42 40 36 34 33 34 34 32 29 28 25 23 22 22 22 23 25 26 26 25 25 25 25 25 25 24 24 24 23 22 20 19 18 18 18 19 20 21 21 22 24 25 26 28 29 30 31 32 33 33 34 36 36 36 37 39 41 43 44 45 44 44
43 43 40 36 34 35 35 35 32 30 28 26 24 23 23 23 24 25 26 26 26 25 26 26 26 26 25 24 24 23 21 20 19 18 18 19 19 20 21 22 23 25 26 27 28 29 30 31 31 32 33 34 35 35 36 38 40 43 44 45 45 44 44
44 43 40 36 35 36 36 35 33 30 29 27 24 23 23 24 25 26 27 27 26 26 26 26 26 26 25 25 24 22 21 19 18 18 19 19 20 21 22 23 24 25 26 27 28 29 30 31 31 32 33 34 35 36 37 40 42 44 45 46 46 45 44
44 43 40 36 36 37 37 36 33 31 29 27 25 24 24 24 26 27 27 27 26 26 26 26 26 26 26 26 24 22 20 19 19 19 19 20 22 22 23 24 25 26 27 28 29 30 31 32 32 34 34 35 36 37 39 42 44 45 47 47 47 45 45
45 43 40 36 36 38 38 36 34 32 30 28 26 25 24 25 26 27 27 27 26 25 25 25 25 26 26 26 24 22 21 20 20 21 21 22 23 24 24 25 25 27 28 29 30 31 32 33 35 36 36 36 37 39 41 44 46 47 48 48 47 47 46
45 43 40 37 38 39 38 37 35 32 30 29 27 26 25 25 26 27 27 26 26 25 25 25 25 25 26 26 24 22 21 21 21 22 22 23 24 25 26 26 27 29 30 30 32 33 33 35 36 36 36 37 39 41 44 46 47 48 49 49 48 46 44
45 43 40 38 39 40 39 38 36 34 31 29 28 27 26 26 27 27 27 26 26 26 25 25 25 25 26 26 24 22 21 21 22 23 24 25 26 27 28 29 30 31 31 31 33 34 34 35 35 36 37 39 41 43 46 47 49 50 50 49 46 44 43
45 42 40 38 40 41 40 39 37 35 32 30 30 29 27 26 27 28 27 26 26 26 26 25 25 26 26 25 24 22 22 22 23 24 25 27 29 30 30 31 31 32 32 33 34 34 34 35 36 37 38 40 42 45 47 49 50 50 48 45 43 42 43
45 42 39 39 41 42 41 39 38 36 33 32 31 30 28 27 27 28 27 26 27 28 27 26 26 26 26 26 24 23 23 23 24 26 28 29 31 31 32 32 31 32 33 33 33 33 34 35 37 39 40 42 44 47 49 50 49 47 44 42 41 41 42
45 42 40 40 41 42 41 40 39 37 34 33 32 31 29 28 28 28 27 27 28 28 27 26 26 27 27 26 25 25 24 25 26 28 30 31 32 32 32 32 31 32 32 32 32 34 35 37 39 40 42 44 47 48 48 47 45 43 41 40 40 40 40
45 43 41 41 41 42 42 41 40 38 36 34 33 33 31 29 27 27 27 27 28 28 27 27 27 27 27 26 26 25 26 27 28 30 31 32 32 32 30 30 31 32 32 32 33 35 37 39 41 43 44 46 46 46 44 42 41 41 40 39 39 40 39
45 44 44 42 42 42 42 42 42 40 37 36 35 34 32 29 27 27 27 27 28 28 28 28 28 27 27 26 26 27 27 28 30 31 31 31 30 30 30 30 30 31 32 33 35 37 39 41 43 44 44 44 43 42 40 40 40 40 39 39 39 39 39
47 47 46 44 42 42 43 44 43 41 39 37 36 35 32 29 26 26 27 28 28 28 28 28 28 28 27 28 28 29 29 30 31 31 29 29 30 30 30 30 31 32 33 35 37 39 41 43 43 43 42 41 40 39 39 38 39 39 39 39 39 38 38
50 49 48 45 43 44 44 45 44 43 40 38 37 35 32 28 25 26 28 29 28 28 28 29 29 30 30 30 31 31 32 32 31 29 28 29 30 30 30 31 32 34 36 38 40 41 42 42 41 40 40 39 39 39 39 39 39 39 39 38 38 37 38
52 51 49 46 44 45 46 46 45 43 41 39 37 35 31 26 25 28 30 30 29 29 30 31 31 31 32 32 32 32 32 30 28 27 28 29 30 30 31 33 34 36 38 40 41 41 41 40 39 39 38 38 38 39 39 39 39 38 37 37 37 37 37
53 52 49 47 45 46 46 46 45 44 42 40 38 34 29 27 28 30 32 32 31 32 32 32 31 31 31 30 30 30 30 28 27 27 28 29 30 32 34 35 37 38 39 40 41 41 40 39 38 38 38 38 38 38 38 37 37 36 36 36 36 36 36
55 53 51 48 47 47 47 46 46 44 43 41 37 32 29 28 29 31 33 34 33 32 32 33 32 31 29 28 28 28 28 27 26 27 28 30 32 34 36 37 39 40 40 40 40 39 39 38 38 38 38 38 37 37 36 35 35 35 35 35 35 35 35
Wind_Direction
276 277 277 277 276 276 278 278 276 274 274 274 276 276 274 275 276 278 279 278 275 273 273 275 276 277 279 279 277 276 278 279 280 279 277 275 273 273 274 275 275 276 275 272 270 270 272 275 278 281 284 287 290 292 295 299 302 307 309 310 312 313 315
275 275 275 274 275 276 277 276 271 269 270 272 274 274 272 272 275 277 276 273 271 269 268 273 278 280 282 282 279 277 277 279 281 283 281 278 275 272 272 275 276 276 275 272 271 271 272 276 279 282 284 287 291 293 297 300 303 307 309 310 312 313 314
273 272 271 271 274 277 277 273 268 266 268 271 272 271 269 269 272 274 272 270 270 266 266 272 278 280 282 284 283 279 276 277 279 281 282 281 278 272 270 276 278 276 274 272 271 272 273 277 280 282 285 288 291 294 298 301 304 307 308 309 311 313 314
269 268 268 269 272 275 276 272 266 264 266 267 268 267 265 266 270 273 271 270 271 268 268 273 276 277 279 282 281 279 278 277 277 278 279 282 283 276 272 278 279 274 273 272 272 274 275 279 282 284 286 288 291 295 298 301 304 306 307 309 311 313 313
263 264 264 267 270 272 275 271 265 263 263 263 264 263 263 267 272 273 270 270 272 272 273 275 274 272 274 277 278 279 281 281 280 279 278 282 284 275 273 280 278 274 273 273 274 275 277 280 283 285 288 290 292 295 299 302 303 304 306 309 311 312 312
259 260 261 264 266 270 273 269 263 261 260 260 260 260 262 268 271 271 269 269 271 273 276 277 274 272 273 276 277 279 282 281 281 282 282 281 277 271 275 280 276 274 274 274 275 276 278 281 284 287 289 291 294 296 299 301 302 304 306 309 310 310 311
255 256 258 260 263 269 272 267 261 258 257 257 257 256 261 267 269 269 269 271 273 274 276 276 275 276 279 280 279 279 280 280 281 282 281 277 271 272 278 278 275 275 274 275 276 277 279 282 285 288 291 293 296 298 300 300 302 304 306 307 308 309 310
252 254 256 257 261 268 269 263 258 255 255 254 253 255 261 265 267 266 267 273 278 276 274 274 275 279 282 282 281 280 280 280 280 279 277 273 271 274 278 276 275 275 275 276 276 277 280 283 286 289 291 294 297 299 300 300 302 304 305 306 307 308 310
251 253 254 255 259 265 264 259 256 254 253 251 250 254 259 263 263 262 263 271 278 276 272 272 274 277 280 281 281 281 279 280 280 276 273 271 273 275 277 276 274 273 275 277 278 279 281 284 286 289 292 296 298 300 301 301 302 303 305 306 307 308 310
250 251 252 253 257 263 262 258 255 253 251 248 248 253 257 259 259 259 262 268 274 276 276 276 276 278 281 281 281 280 279 279 278 273 271 272 274 276 277 277 275 272 275 278 279 280 282 284 287 289 293 296 299 300 301 302 303 304 305 306 308 309 311
249 249 251 252 256 262 261 257 255 253 249 245 247 253 255 256 257 260 265 270 273 276 277 278 279 281 281 281 283 282 280 279 276 274 275 276 276 276 276 278 278 276 278 279 279 280 283 285 287 289 293 297 299 301 302 303 303 304 306 307 308 310 311
247 249 250 251 255 259 258 256 255 252 247 244 247 252 254 256 259 262 266 270 273 274 275 277 279 281 281 281 283 283 281 279 278 279 280 280 278 277 277 279 281 281 282 283 281 281 282 284 286 290 294 297 299 301 302 302 303 304 306 307 307 309 310
247 249 249 250 253 256 256 255 255 251 244 243 246 251 253 254 258 263 266 270 273 273 275 277 279 281 281 282 283 283 280 279 280 281 281 281 282 282 282 282 283 284 284 284 282 281 282 284 287 291 295 297 298 299 300 300 302 303 304 305 307 309 311
247 248 248 249 251 252 254 255 254 249 242 242 246 248 251 253 257 262 266 270 273 274 276 278 280 281 281 282 284 282 280 280 281 282 282 282 282 282 282 282 282 283 283 282 281 280 282 285 289 292 294 296 297 298 298 299 300 302 303 304 307 309 312
246 247 246 248 249 249 252 254 253 247 241 241 245 247 250 253 257 262 266 270 274 276 278 279 280 281 282 283 283 282 282 283 283 283 282 282 282 281 280 280 280 281 281 281 280 281 283 287 290 292 293 294 296 297 298 299 301 303 304 304 306 309 311
243 245 245 247 248 247 249 253 251 245 241 241 244 247 250 254 259 264 268 272 274 277 279 280 280 281 283 284 283 283 284 284 284 284 283 282 282 281 279 279 280 281 281 281 282 283 286 288 290 292 293 294 296 298 300 302 304 304 303 303 306 310 311
242 243 245 246 247 246 247 250 249 244 240 240 244 247 250 255 260 264 267 270 274 277 279 280 281 281 282 283 284 286 287 287 286 284 283 283 281 280 279 280 280 281 282 283 284 286 288 289 291 292 293 295 298 300 303 306 307 308 306 305 308 310 311
241 242 244 245 245 244 245 247 246 242 240 240 243 247 250 255 259 263 266 270 274 276 278 280 281 281 281 283 285 287 289 289 287 283 281 280 279 279 280 281 282 282 283 284 285 287 289 290 292 293 295 298 300 303 305 307 310 312 313 312 311 311 311
240 242 244 244 243 242 243 245 244 241 239 239 242 247 250 255 260 263 267 270 274 276 278 280 281 281 282 284 287 289 289 288 286 283 281 280 280 281 281 282 283 283 284 286 287 288 289 290 292 294 297 300 302 304 306 307 310 314 316 315 314 313 312
240 242 243 242 241 240 241 243 243 240 238 239 241 246 251 255 260 263 267 270 273 276 277 279 281 282 283 286 288 289 288 286 284 283 282 282 282 282 283 284 285 286 286 286 286 287 289 291 293 296 299 302 304 305 306 307 310 313 315 315 314 313 312
238 241 241 240 238 238 240 242 242 239 237 238 240 245 250 255 259 263 267 270 273 275 277 279 282 283 285 287 288 288 285 282 281 282 283 283 284 284 285 286 287 287 286 286 287 289 291 293 295 298 301 303 304 304 305 307 310 312 314 315 314 313 312
237 239 240 238 236 237 239 241 242 239 237 238 239 244 250 255 259 263 266 269 272 274 277 279 282 284 286 288 288 285 281 279 279 281 283 284 285 286 286 287 287 287 288 289 291 293 295 297 299 300 301 302 302 302 304 307 310 312 314 314 314 312 311
235 237 238 236 235 236 238 241 241 239 237 237 238 243 249 254 259 263 266 269 271 274 277 280 282 284 286 288 288 284 280 279 280 281 283 284 285 286 287 288 290 291 292 294 296 297 299 300 301 300 300 300 301 302 304 307 310 312 314 314 314 312 311
234 236 236 234 233 235 237 240 240 239 237 237 237 241 248 253 258 262 265 268 271 274 277 279 282 284 287 288 287 283 279 280 281 282 284 285 287 289 291 293 295 295 296 298 299 300 301 302 301 300 300 300 301 302 305 308 311 313 314 315 313 312 312
233 235 234 232 232 233 236 239 240 239 238 237 237 240 246 252 257 261 264 267 271 274 277 280 282 284 286 287 286 281 279 280 283 284 285 288 291 293 295 297 298 298 298 299 300 301 301 300 300 301 301 301 302 305 308 310 313 314 315 314 312 311 311
232 233 233 231 230 232 235 238 239 239 237 236 237 240 245 251 256 260 263 267 271 274 278 280 282 284 285 285 283 279 278 281 283 285 288 291 294 295 296 298 299 299 299 299 299 300 300 300 301 302 302 303 305 308 310 312 313 314 314 313 311 310 311
231 232 231 230 230 232 235 237 239 239 237 236 237 240 245 250 255 258 262 266 271 274 277 279 280 282 283 283 281 278 278 281 283 287 291 293 294 295 297 298 299 298 298 297 298 300 301 301 301 302 303 305 308 310 311 312 313 313 312 312 311 310 311
229 230 230 229 230 232 234 237 239 239 237 236 236 239 244 248 253 257 261 266 270 273 275 277 278 279 281 282 280 278 278 281 285 289 292 293 294 296 297 298 298 297 296 297 299 300 301 301 301 303 305 307 309 310 310 311 311 311 311 311 310 310 310
227 228 228 229 230 232 234 236 238 238 237 235 236 239 242 247 251 255 259 264 268 271 274 276 277 277 279 280 279 278 280 283 287 290 291 292 294 296 296 297 297 296 296 298 300 300 301 302 303 305 307 308 308 308 309 309 310 310 311 311 311 310 311
226 226 228 229 230 231 234 236 238 238 236 235 236 239 241 244 248 253 258 263 267 271 274 275 275 275 277 279 279 281 284 287 289 290 292 293 295 295 295 296 296 296 297 299 300 301 302 304 305 306 307 307 307 307 308 309 309 310 311 312 311 311 312
224 226 228 230 230 230 232 235 237 238 236 235 236 238 240 242 246 252 258 263 267 271 272 272 272 273 276 279 281 283 287 289 291 292 293 294 294 294 294 294 295 297 299 301 302 304 305 305 306 306 307 307 306 306 308 309 310 311 311 311 312 312 313
224 226 229 229 229 229 231 234 237 237 236 235 236 238 240 241 246 252 258 263 267 269 269 269 270 273 276 279 281 284 287 290 293 294 294 294 293 293 294 294 296 298 300 303 304 305 305 305 305 305 305 305 305 307 309 310 310 310 311 311 312 312 312
225 227 228 228 227 227 229 233 236 237 237 236 236 239 240 241 246 252 257 261 263 264 265 267 270 272 274 276 279 282 285 290 294 293 293 293 293 293 295 296 297 299 301 303 304 304 304 304 304 304 305 305 306 308 309 309 309 310 311 312 312 311 311
226 227 228 227 226 226 228 231 234 236 237 237 237 239 241 242 246 252 257 259 261 263 264 266 268 270 272 274 277 280 283 289 292 290 290 292 293 293 294 296 297 299 301 302 302 302 303 303 303 304 305 306 308 309 309 309 310 311 312 312 312 312 313
227 227 226 225 225 225 227 230 233 236 237 237 238 239 240 243 246 251 255 257 258 259 261 263 265 267 270 272 275 278 283 287 289 288 290 292 292 294 296 297 299 300 301 301 301 301 302 303 304 305 306 308 309 309 309 310 311 312 312 312 313 314 315
227 226 225 225 224 225 227 229 232 235 237 237 238 239 240 242 246 251 255 255 255 257 259 262 264 266 269 271 274 278 283 287 288 288 290 291 292 295 297 298 299 300 300 300 301 303 304 305 305 306 307 309 310 309 310 311 312 312 313 314 315 316 317
227 226 224 224 224 225 227 229 232 235 237 238 238 238 239 241 247 252 255 255 257 260 263 265 266 268 269 270 273 280 286 287 287 288 289 292 295 296 297 298 300 300 300 302 303 304 305 305 306 307 309 310 310 310 310 311 312 313 313 314 315 316 317
Height
5826 5825 5825 5825 5825 5826 5826 5826 5826 5825 5825 5825 5825 5826 5826 5826 5827 5827 5827 5827 5827 5826 5825 5826 5826 5825 5825 5824 5823 5823 5823 5823 5823 5823 5823 5823 5822 5821 5821 5821 5820 5820 5820 5819 5819 5819 5818 5818 5818 5817 5817 5816 5815 5814 5813 5812 5811 5810 5809 5807 5806 5804 5802
5823 5822 5822 5822 5822 5822 5823 5823 5823 5823 5823 5822 5822 5823 5824 5824 5825 5825 5825 5825 5825 5824 5824 5823 5823 5823 5822 5822 5821 5821 5821 5821 5821 5821 5821 5820 5819 5819 5818 5818 5818 5818 5818 5817 5817 5816 5816 5816 5815 5815 5814 5814 5813 5811 5811 5810 5809 5808 5807 5805 5803 5801 5799
5820 5819 5818 5819 5819 5819 5820 5820 5820 5820 5820 5820 5820 5820 5821 5822 5822 5822 5823 5823 5822 5822 5822 5822 5822 5821 5820 5819 5819 5819 5819 5819 5819 5819 5818 5817 5816 5816 5816 5816 5815 5815 5815 5815 5815 5814 5814 5813 5813 5812 5812 5811 5810 5809 5808 5807 5807 5806 5804 5802 5801 5799 5796
5816 5816 5815 5816 5816 5816 5817 5817 5817 5817 5817 5817 5817 5817 5818 5819 5819 5820 5820 5820 5820 5820 5821 5820 5819 5819 5819 5818 5816 5816 5816 5817 5816 5816 5816 5815 5814 5814 5814 5814 5813 5813 5813 5812 5812 5812 5811 5811 5810 5810 5809 5809 5808 5807 5806 5805 5804 5803 5801 5800 5798 5796 5793
5813 5812 5812 5813 5813 5813 5814 5814 5814 5814 5814 5814 5814 5815 5815 5816 5816 5817 5818 5818 5818 5818 5819 5818 5816 5816 5817 5816 5815 5814 5814 5814 5814 5813 5813 5813 5812 5811 5812 5812 5811 5810 5810 5810 5810 5809 5809 5808 5808 5807 5807 5806 5806 5805 5803 5802 5801 5800 5798 5797 5795 5793 5790
5810 5809 5809 5810 5810 5810 5811 5811 5811 5811 5811 5812 5812 5812 5813 5813 5814 5814 5815 5815 5815 5816 5817 5815 5812 5813 5814 5814 5813 5813 5812 5812 5811 5810 5810 5810 5809 5809 5809 5809 5809 5808 5807 5807 5807 5807 5806 5806 5805 5805 5804 5803 5803 5802 5801 5799 5798 5797 5795 5793 5791 5789 5787
5806 5806 5806 5807 5807 5807 5808 5808 5808 5808 5808 5809 5809 5810 5810 5811 5811 5811 5812 5812 5812 5813 5815 5813 5810 5811 5811 5811 5810 5810 5809 5809 5808 5808 5807 5807 5807 5807 5807 5807 5806 5805 5805 5804 5804 5804 5804 5803 5803 5802 5801 5801 5800 5799 5798 5796 5795 5794 5792 5790 5788 5786 5784
5802 5802 5803 5803 5804 5805 5805 5805 5805 5805 5806 5806 5807 5807 5808 5808 5809 5809 5809 5809 5809 5810 5812 5811 5809 5809 5809 5808 5808 5807 5807 5806 5805 5805 5805 5804 5804 5804 5804 5804 5804 5803 5802 5802 5802 5801 5801 5800 5800 5799 5799 5798 5797 5796 5795 5793 5792 5790 5789 5787 5785 5782 5780
5799 5799 5799 5800 5801 5802 5802 5802 5802 5803 5803 5803 5804 5805 5805 5806 5806 5807 5807 5807 5807 5807 5809 5809 5808 5808 5807 5806 5806 5805 5804 5803 5803 5803 5802 5802 5802 5802 5802 5801 5801 5800 5800 5799 5799 5798 5798 5797 5797 5797 5796 5795 5794 5793 5792 5790 5789 5787 5785 5783 5781 5779 5777
5795 5795 5796 5797 5798 5799 5799 5799 5799 5800 5800 5801 5801 5802 5803 5803 5804 5804 5805 5805 5805 5805 5805 5806 5805 5805 5805 5804 5803 5803 5802 5801 5801 5800 5800 5799 5799 5799 5799 5799 5798 5797 5797 5797 5796 5796 5795 5795 5794 5794 5793 5792 5791 5789 5788 5787 5785 5784 5782 5780 5778 5776 5774
5791 5791 5792 5794 5795 5796 5797 5796 5796 5797 5798 5798 5799 5799 5800 5801 5801 5802 5802 5803 5803 5803 5803 5803 5802 5802 5802 5801 5801 5800 5799 5798 5798 5798 5798 5797 5797 5797 5796 5796 5795 5795 5794 5794 5793 5793 5793 5792 5792 5791 5790 5789 5788 5786 5785 5783 5782 5780 5779 5777 5774 5772 5770
5787 5787 5789 5791 5792 5793 5794 5793 5794 5794 5795 5796 5796 5796 5797 5798 5799 5799 5800 5800 5801 5801 5801 5800 5800 5800 5800 5799 5798 5797 5796 5796 5796 5795 5795 5795 5794 5794 5794 5793 5793 5792 5792 5791 5791 5791 5790 5789 5789 5788 5788 5787 5785 5784 5782 5780 5778 5777 5775 5773 5771 5769 5766
5783 5784 5786 5788 5789 5790 5790 5790 5791 5792 5792 5793 5793 5794 5795 5796 5796 5797 5797 5798 5798 5799 5799 5798 5798 5798 5797 5797 5796 5795 5795 5794 5793 5793 5793 5792 5791 5791 5791 5791 5791 5790 5789 5789 5788 5788 5788 5787 5786 5786 5785 5784 5782 5781 5779 5776 5775 5773 5772 5769 5767 5765 5762
5780 5780 5782 5785 5786 5787 5787 5787 5788 5789 5789 5790 5790 5791 5792 5793 5794 5794 5795 5795 5796 5796 5796 5796 5796 5795 5795 5795 5794 5793 5793 5792 5791 5791 5790 5789 5789 5789 5789 5789 5788 5788 5787 5787 5786 5786 5785 5784 5784 5783 5782 5781 5779 5778 5776 5773 5771 5769 5768 5765 5763 5761 5758
5776 5777 5779 5781 5783 5784 5784 5785 5785 5786 5787 5787 5788 5789 5790 5790 5791 5791 5792 5793 5793 5794 5794 5794 5793 5793 5792 5792 5792 5791 5790 5789 5789 5788 5787 5787 5787 5787 5787 5786 5786 5786 5785 5784 5784 5783 5783 5782 5781 5780 5779 5778 5776 5774 5772 5770 5767 5766 5764 5761 5759 5756 5754
5773 5774 5776 5778 5780 5781 5781 5782 5783 5783 5783 5784 5785 5786 5787 5787 5788 5789 5789 5790 5790 5791 5791 5791 5791 5790 5790 5789 5789 5788 5788 5787 5786 5785 5785 5784 5784 5784 5784 5784 5783 5783 5782 5782 5781 5780 5780 5779 5778 5777 5776 5774 5772 5770 5768 5766 5764 5762 5760 5757 5755 5752 5749
5769 5771 5772 5775 5777 5777 5778 5778 5779 5780 5780 5781 5782 5783 5784 5784 5785 5786 5786 5787 5787 5788 5788 5788 5788 5788 5787 5787 5786 5785 5785 5784 5783 5782 5782 5782 5782 5782 5781 5781 5781 5780 5780 5779 5778 5778 5777 5776 5775 5773 5772 5770 5769 5767 5765 5763 5760 5758 5755 5753 5751 5748 5745
5766 5767 5769 5771 5773 5774 5774 5775 5776 5777 5777 5778 5779 5780 5781 5782 5782 5783 5784 5784 5784 5785 5785 5786 5785 5785 5785 5784 5783 5783 5782 5781 5780 5780 5779 5779 5779 5779 5779 5778 5777 5777 5777 5776 5775 5774 5773 5772 5771 5770 5769 5767 5765 5763 5761 5759 5757 5754 5751 5749 5746 5744 5740
5762 5763 5765 5767 5769 5770 5771 5772 5772 5773 5774 5775 5776 5777 5778 5779 5780 5780 5781 5781 5781 5782 5782 5783 5783 5783 5782 5781 5781 5780 5779 5778 5777 5777 5777 5777 5776 5776 5776 5775 5775 5774 5774 5773 5772 5771 5770 5769 5768 5767 5765 5764 5762 5760 5758 5755 5753 5750 5747 5745 5742 5739 5736
5758 5759 5761 5763 5765 5766 5767 5768 5769 5770 5771 5772 5773 5774 5775 5776 5777 5777 5778 5778 5778 5779 5779 5780 5780 5780 5780 5779 5778 5777 5776 5776 5775 5775 5774 5774 5774 5773 5773 5772 5772 5771 5770 5769 5768 5767 5766 5766 5765 5763 5762 5760 5758 5756 5754 5751 5749 5746 5743 5741 5738 5734 5731
5754 5755 5757 5759 5762 5763 5763 5764 5765 5767 5768 5769 5770 5771 5772 5773 5774 5774 5775 5775 5775 5776 5776 5777 5777 5777 5777 5776 5776 5775 5774 5773 5773 5772 5772 5772 5771 5771 5770 5769 5769 5768 5767 5766 5765 5764 5763 5762 5761 5760 5758 5756 5754 5752 5750 5747 5745 5742 5739 5736 5733 5730 5727
5749 5751 5753 5756 5758 5759 5759 5760 5762 5763 5764 5766 5767 5768 5769 5770 5771 5771 5771 5772 5772 5772 5773 5774 5774 5774 5774 5774 5773 5772 5772 5771 5771 5770 5770 5769 5769 5768 5767 5767 5766 5765 5764 5763 5762 5761 5760 5759 5758 5756 5754 5752 5750 5748 5746 5743 5741 5738 5736 5732 5729 5726 5723
5745 5747 5749 5752 5754 5755 5756 5757 5758 5760 5761 5762 5764 5765 5766 5767 5767 5768 5768 5769 5769 5770 5770 5770 5771 5771 5771 5771 5770 5770 5769 5769 5768 5768 5767 5766 5766 5765 5764 5763 5762 5761 5760 5759 5759 5758 5757 5755 5754 5752 5750 5748 5746 5744 5742 5739 5737 5735 5732 5729 5725 5722 5718
5741 5743 5745 5748 5750 5751 5752 5753 5755 5756 5758 5759 5760 5762 5763 5764 5764 5765 5765 5766 5766 5767 5767 5767 5768 5768 5768 5768 5768 5767 5767 5766 5766 5765 5764 5764 5763 5762 5761 5760 5759 5758 5757 5756 5755 5754 5753 5752 5750 5748 5747 5744 5742 5740 5738 5736 5733 5731 5728 5724 5721 5718 5714
5736 5739 5741 5744 5746 5747 5748 5749 5751 5752 5754 5756 5757 5758 5760 5760 5761 5762 5762 5763 5763 5763 5764 5764 5765 5765 5765 5765 5765 5764 5764 5763 5763 5762 5762 5761 5760 5759 5758 5757 5756 5755 5754 5753 5752 5751 5749 5748 5746 5744 5743 5741 5739 5736 5734 5731 5729 5726 5723 5720 5717 5713 5710
5732 5735 5737 5740 5742 5743 5744 5745 5747 5749 5750 5752 5753 5755 5756 5757 5758 5759 5759 5760 5760 5760 5761 5762 5762 5762 5762 5762 5762 5761 5761 5760 5760 5759 5759 5758 5757 5756 5755 5754 5753 5752 5751 5749 5748 5747 5746 5744 5743 5741 5739 5737 5735 5732 5729 5727 5724 5722 5718 5715 5712 5709 5706
5728 5731 5733 5736 5737 5739 5740 5741 5743 5745 5747 5749 5750 5751 5752 5754 5755 5755 5756 5757 5757 5757 5758 5759 5759 5759 5759 5759 5759 5758 5758 5757 5757 5756 5756 5755 5754 5753 5752 5751 5750 5748 5747 5746 5744 5743 5742 5740 5739 5737 5735 5733 5730 5728 5725 5722 5720 5717 5714 5710 5707 5705 5702
5724 5726 5729 5732 5733 5734 5736 5737 5739 5741 5743 5745 5746 5747 5749 5750 5751 5752 5753 5753 5754 5754 5755 5755 5756 5756 5756 5756 5755 5755 5755 5754 5754 5753 5753 5752 5751 5750 5749 5747 5746 5744 5743 5742 5741 5739 5738 5736 5734 5733 5731 5728 5726 5723 5720 5718 5715 5712 5709 5706 5703 5700 5698
5720 5722 5725 5727 5729 5730 5732 5733 5735 5737 5739 5741 5742 5744 5745 5747 5748 5748 5749 5750 5750 5751 5751 5752 5752 5752 5752 5752 5752 5752 5752 5751 5751 5750 5749 5748 5747 5746 5745 5743 5742 5741 5739 5738 5737 5735 5734 5732 5730 5728 5726 5724 5721 5718 5716 5713 5710 5707 5704 5701 5698 5696 5693
5715 5718 5721 5723 5725 5726 5728 5729 5731 5733 5735 5737 5739 5740 5741 5743 5744 5745 5746 5747 5747 5748 5748 5749 5749 5749 5749 5749 5749 5749 5749 5748 5748 5747 5746 5745 5744 5742 5741 5739 5738 5736 5735 5734 5733 5731 5729 5727 5725 5723 5721 5719 5716 5713 5710 5708 5705 5702 5700 5697 5694 5691 5689
5711 5714 5717 5719 5721 5722 5723 5725 5727 5729 5731 5733 5735 5736 5737 5739 5741 5742 5743 5744 5744 5745 5745 5745 5745 5745 5745 5746 5746 5746 5746 5745 5744 5743 5742 5741 5740 5738 5737 5735 5734 5732 5731 5730 5729 5727 5725 5723 5720 5718 5716 5713 5710 5708 5705 5702 5699 5697 5695 5693 5690 5687 5684
5706 5710 5712 5714 5716 5717 5719 5721 5722 5725 5727 5729 5731 5732 5734 5736 5738 5739 5740 5741 5741 5741 5741 5741 5741 5741 5742 5742 5742 5742 5742 5741 5741 5740 5739 5737 5736 5734 5733 5732 5730 5729 5727 5726 5725 5723 5720 5718 5716 5713 5711 5708 5705 5703 5701 5698 5695 5693 5691 5689 5686 5683 5681
5702 5705 5707 5710 5711 5713 5714 5716 5718 5720 5723 5725 5727 5728 5730 5733 5735 5736 5737 5737 5737 5737 5737 5737 5738 5738 5738 5739 5739 5738 5738 5737 5737 5736 5735 5733 5732 5730 5729 5728 5726 5725 5724 5722 5720 5718 5716 5713 5711 5709 5706 5704 5701 5699 5696 5694 5691 5689 5687 5685 5682 5680 5677
5697 5700 5702 5704 5706 5708 5710 5712 5714 5716 5719 5721 5723 5725 5727 5730 5732 5733 5733 5733 5733 5733 5734 5734 5734 5734 5734 5734 5735 5734 5734 5734 5733 5732 5731 5729 5728 5727 5725 5724 5722 5721 5719 5717 5715 5713 5711 5709 5706 5704 5701 5699 5697 5694 5692 5690 5688 5686 5683 5681 5679 5676 5674
5692 5694 5697 5699 5701 5703 5705 5707 5710 5712 5715 5718 5720 5722 5725 5727 5728 5728 5728 5729 5729 5729 5729 5730 5730 5730 5730 5730 5730 5730 5730 5730 5729 5728 5726 5725 5724 5722 5721 5720 5718 5717 5715 5713 5711 5709 5707 5705 5702 5700 5697 5695 5693 5690 5688 5686 5684 5682 5679 5677 5675 5672 5670
5687 5689 5692 5695 5697 5699 5701 5704 5706 5709 5712 5714 5716 5719 5722 5723 5724 5724 5724 5724 5724 5725 5725 5726 5726 5727 5727 5727 5726 5726 5726 5726 5725 5724 5722 5721 5719 5718 5717 5715 5714 5712 5710 5708 5706 5704 5703 5700 5698 5696 5694 5692 5689 5687 5684 5682 5680 5678 5675 5673 5671 5669 5666
5682 5684 5687 5690 5692 5694 5697 5700 5703 5705 5708 5710 5713 5716 5718 5719 5720 5721 5720 5720 5720 5721 5722 5722 5723 5724 5724 5724 5723 5723 5723 5722 5721 5720 5718 5717 5715 5714 5712 5711 5709 5707 5706 5704 5702 5700 5698 5696 5694 5692 5690 5688 5686 5683 5680 5678 5676 5674 5671 5669 5667 5665 5663